Location: Fort Wayne
(41.1310°N, 85.1290°W)
Time: 10:22:04
(UTC-05:00)

Amateur Radio Satellites - All Passes

Search period start: 22 November 2014 09:52
Search period end: 23 November 2014 09:52
Location: Fort Wayne, 41.1310°N, 85.1290°W

Satellite Date Start Highest point End Downlink Frequencies (MHz)
Time Altitude Azimuth
TIGRISAT 22 Nov 09:53:30 09:57:16 31° 70° (ENE) 10:01:00 435.000
DOVE 4 22 Nov 10:00:44 10:04:51 61° 101° (E) 10:09:02 437.250
SEEDS 22 Nov 10:02:12 10:06:27 71° 285° (WNW) 10:10:42 437.485
POLYITAN 1 22 Nov 10:02:18 10:05:57 28° 69° (ENE) 10:09:35 437.675
DX 1 22 Nov 10:02:57 10:07:01 37° 98° (E) 10:11:01 434.975-435.025
UNISAT 6 22 Nov 10:04:25 10:08:27 41° 72° (ENE) 10:12:28 437.425
QB50P2 22 Nov 10:05:58 10:09:42 30° 70° (ENE) 10:13:27 145.880/145.840
GONETS M04 22 Nov 10:11:26 10:19:56 52° 284° (WNW) 10:28:32
DUCHIFAT 1 22 Nov 10:14:36 10:18:32 37° 71° (ENE) 10:22:27 145.980
VELOX 1 22 Nov 10:15:04 10:17:46 16° 92° (E) 10:20:27 145.980
GOMX 1 22 Nov 10:23:25 10:27:28 53° 286° (WNW) 10:31:32 467.674
CANX-2 22 Nov 10:24:36 10:28:25 32° 290° (WNW) 10:32:14 2200.000
ZACube-1 22 Nov 10:27:34 10:31:25 34° 97° (E) 10:35:17 437.345
AAUSAT CUBESAT 2 22 Nov 10:27:48 10:31:53 48° 287° (WNW) 10:35:57 437.432
BRITE-PL 22 Nov 10:30:55 10:34:37 31° 290° (WNW) 10:38:17 437.365/2234.400
ANTELSAT 22 Nov 10:32:21 10:36:39 86° 76° (ENE) 10:40:56 437.575/2403.000
NANOSAT C BR1 22 Nov 10:32:58 10:37:10 60° 74° (ENE) 10:41:23 145.865
AISAT 22 Nov 10:37:45 10:41:35 28° 96° (E) 10:45:23 437.250
COMPASS 1 22 Nov 10:40:24 10:44:09 31° 290° (WNW) 10:47:54 437.405
QB50P1 22 Nov 10:42:12 10:46:28 77° 76° (ENE) 10:50:45 145.935-145.965
HUMSAT D 22 Nov 10:42:41 10:46:21 30° 97° (E) 10:50:02 437.325/437.525
DELFI C3 22 Nov 10:54:13 10:58:17 56° 286° (WNW) 11:02:20 145.870
50 SAT 22 Nov 10:59:28 11:03:15 38° 98° (E) 11:07:03 437.505
CUTE 1.7 & AOD 2 22 Nov 11:00:53 11:03:26 16° 295° (WNW) 11:05:58 437.475
FUNcube-1 22 Nov 11:03:34 11:07:47 88° 103° (ESE) 11:12:03 145.935
SHINDAISAT 22 Nov 11:04:59 11:06:13 15° 116° (ESE) 11:07:27 437.305
POPSAT HIP 1 22 Nov 11:06:32 11:10:44 56° 259° (W) 11:14:56 437.405
CUBEBUG 1 22 Nov 11:06:53 11:10:11 21° 94° (E) 11:13:27 437.445
UKube-1 22 Nov 11:07:44 11:11:50 42° 289° (WNW) 11:15:55 .
CINEMA 3 22 Nov 11:08:08 11:12:00 37° 288° (WNW) 11:15:56 145.822/145.860
CUBEBUG 2 22 Nov 11:10:05 11:14:12 57° 286° (WNW) 11:18:24 437.445
BUGSAT 1 22 Nov 11:15:04 11:19:15 53° 260° (W) 11:23:26 437.445
UWE-3 22 Nov 11:19:11 11:23:16 52° 286° (WNW) 11:27:25 435.000/436.395/437.385
Oscar 11 22 Nov 11:22:42 11:26:18 26° 292° (WNW) 11:29:53 145.826/435.025
HO-68 22 Nov 11:23:36 11:29:15 26° 301° (WNW) 11:34:53 435.675
TIGRISAT 22 Nov 11:30:42 11:34:03 22° 265° (W) 11:37:24 435.000
ESTCUBE 1 22 Nov 11:33:54 11:38:14 43° 99° (E) 11:42:32 437.505/2401.250
POLYITAN 1 22 Nov 11:38:20 11:41:52 25° 265° (W) 11:45:24 437.675
DX 1 22 Nov 11:39:49 11:43:00 20° 295° (WNW) 11:46:10 434.975-435.025
DOVE 4 22 Nov 11:40:47 11:42:09 11° 297° (WNW) 11:43:32 437.250
QB50P2 22 Nov 11:42:15 11:45:38 23° 265° (W) 11:49:02 145.880/145.840
UNISAT 6 22 Nov 11:42:41 11:45:26 17° 267° (W) 11:48:12 437.425
Oscar 19 22 Nov 11:46:46 11:48:11 11° 58° (ENE) 11:49:36 437.125/150
VELOX 1 22 Nov 11:50:22 11:54:37 47° 288° (WNW) 11:58:50 145.980
DUCHIFAT 1 22 Nov 11:51:31 11:54:31 19° 267° (W) 11:57:33 145.980
ZACube-1 22 Nov 12:04:29 12:07:36 20° 293° (WNW) 12:10:44 437.345
NANOSAT C BR1 22 Nov 12:12:00 12:13:26 11° 270° (W) 12:14:52 145.865
AISAT 22 Nov 12:14:27 12:18:08 26° 292° (WNW) 12:21:49 437.250
HUMSAT D 22 Nov 12:18:48 12:22:01 22° 292° (WNW) 12:25:15 437.325/437.525
ITAMSAT 1 22 Nov 12:30:11 12:32:01 12° 58° (ENE) 12:33:50 435.822/435.867
50 SAT 22 Nov 12:35:39 12:38:18 17° 294° (WNW) 12:40:58 437.505
YUBILEINY 22 Nov 12:37:40 12:42:09 15° 58° (ENE) 12:46:35 435.215
CUBEBUG 1 22 Nov 12:42:41 12:46:39 35° 290° (WNW) 12:50:35 437.445
SO-50 22 Nov 12:43:31 12:47:09 21° 42° (NE) 12:50:48 436.795
SPROUT 22 Nov 12:47:00 12:51:15 59° 101° (E) 12:55:27 437.525
TISAT 1 22 Nov 12:50:07 12:54:21 74° 102° (ESE) 12:58:32 437.305
ESTCUBE 1 22 Nov 13:11:36 13:14:48 19° 295° (WNW) 13:17:58 437.505/2401.250
AUBIESAT-1 22 Nov 13:13:31 13:17:35 26° 99° (E) 13:21:35 437.475
M-CUBED/EXP-1 PRIME 22 Nov 13:15:38 13:19:56 29° 100° (E) 13:24:10 437.505
ITUPSAT 1 22 Nov 13:20:03 13:23:47 22° 94° (E) 13:27:28 437.325
Oscar 19 22 Nov 13:21:36 13:26:42 85° 75° (ENE) 13:31:51 437.125/150
SWISSCUBE 22 Nov 13:32:13 13:36:31 32° 97° (E) 13:40:47 437.505
AO-7 22 Nov 13:46:07 13:50:30 16° 47° (NE) 13:54:52 29.400- 29.500
KKS-1 22 Nov 14:01:29 14:02:50 11° 90° (E) 14:04:09 437.445
BEESAT 22 Nov 14:03:53 14:08:40 63° 101° (ESE) 14:13:24 436.000
ITAMSAT 1 22 Nov 14:05:28 14:10:41 87° 75° (ENE) 14:15:56 435.822/435.867
HORYU 2 22 Nov 14:13:06 14:16:36 24° 67° (ENE) 14:20:07 437.375
Gurwin Techsat 1B 22 Nov 14:14:03 14:19:15 59° 72° (ENE) 14:24:29 435.225
CUSAT 1 22 Nov 14:16:53 14:19:44 48° 281° (W) 14:22:18 437.405
SO-50 22 Nov 14:23:18 14:28:08 64° 241° (WSW) 14:32:58 436.795
SPROUT 22 Nov 14:24:50 14:26:50 13° 297° (WNW) 14:28:50 437.525
DANDE 22 Nov 14:24:52 14:27:52 48° 281° (W) 14:30:28 436.750
TISAT 1 22 Nov 14:28:48 14:29:34 10° 299° (WNW) 14:30:20 437.305
YUBILEINY 22 Nov 14:31:55 14:40:40 74° 81° (E) 14:49:19 435.215
AUBIESAT-1 22 Nov 14:48:04 14:52:36 39° 295° (WNW) 14:57:07 437.475
M-CUBED/EXP-1 PRIME 22 Nov 14:50:29 14:54:56 35° 296° (WNW) 14:59:21 437.505
ITUPSAT 1 22 Nov 14:57:19 15:01:48 39° 290° (WNW) 15:06:14 437.325
STARS 22 Nov 15:03:29 15:07:33 36° 98° (E) 15:11:36 437.465
JAS-2 22 Nov 15:03:44 15:07:08 14° 51° (NE) 15:10:34 435.910
Oscar 19 22 Nov 15:05:36 15:06:41 11° 272° (W) 15:07:45 437.125/150
SWISSCUBE 22 Nov 15:10:14 15:14:16 27° 293° (WNW) 15:18:17 437.505
AO-7 22 Nov 15:33:34 15:41:43 66° 67° (ENE) 15:49:56 29.400- 29.500
KKS-1 22 Nov 15:35:30 15:39:54 66° 286° (WNW) 15:44:17 437.445
BEESAT 22 Nov 15:43:15 15:45:59 15° 298° (WNW) 15:48:42 436.000
HORYU 2 22 Nov 15:49:09 15:53:07 32° 263° (W) 15:57:07 437.375
ITAMSAT 1 22 Nov 15:49:34 15:50:49 11° 271° (W) 15:52:05 435.822/435.867
O/OREOS (USA 219) 22 Nov 15:51:53 15:54:44 16° 54° (NE) 15:57:35 437.305
Gurwin Techsat 1B 22 Nov 15:56:11 15:59:36 17° 269° (W) 16:03:03 435.225
PHONESAT 2.4 22 Nov 16:14:07 16:16:43 18° 149° (SSE) 16:19:19 2401.200-2431.200
MaSat-1 22 Nov 16:25:37 16:28:43 66° 114° (ESE) 16:31:32 437.345
RS-15 22 Nov 16:26:38 16:36:44 45° 109° (ESE) 16:46:46 29.354- 29.394
YUBILEINY 22 Nov 16:30:13 16:36:31 23° 280° (W) 16:42:48 435.215
VERMONT LUNAR 22 Nov 16:40:22 16:43:39 32° 157° (SSE) 16:46:56 437.305
STARS 22 Nov 16:40:33 16:43:48 21° 294° (WNW) 16:47:03 437.465
JAS-2 22 Nov 16:43:12 16:50:33 61° 70° (ENE) 16:58:17 435.910
CUTE-I 22 Nov 16:57:54 17:01:47 21° 63° (ENE) 17:05:40 437.470
AO-7 22 Nov 17:28:20 17:35:02 27° 265° (W) 17:41:49 29.400- 29.500
O/OREOS (USA 219) 22 Nov 17:30:07 17:34:28 53° 252° (WSW) 17:38:49 437.305
MOZHAYETS 4 22 Nov 17:48:30 17:53:11 89° 103° (ESE) 17:57:51
PHONESAT 2.4 22 Nov 17:51:26 17:55:05 56° 165° (SSE) 17:58:45 2401.200-2431.200
Cubesat XI-IV 22 Nov 17:53:32 17:58:50 65° 73° (ENE) 18:04:10 437.490
VERMONT LUNAR 22 Nov 18:18:18 18:21:56 77° 173° (S) 18:25:34 437.305
STRAND 1 22 Nov 18:19:11 18:21:39 14° 90° (E) 18:24:07 437.568
GONETS M04 22 Nov 18:26:39 18:31:56 17° 60° (ENE) 18:37:09
JAS-2 22 Nov 18:29:40 18:35:56 29° 269° (W) 18:42:32 435.910
CUTE-I 22 Nov 18:36:11 18:41:26 54° 260° (W) 18:46:42 437.470
RS-15 22 Nov 18:38:08 18:48:48 55° 312° (NW) 18:59:33 29.354- 29.394
PRISM 22 Nov 18:48:07 18:52:23 74° 102° (ESE) 18:56:36 437.425
CUBESAT XI-V 22 Nov 19:19:00 19:23:38 57° 100° (E) 19:28:11 437.345
MOZHAYETS 4 22 Nov 19:28:56 19:29:41 10° 300° (WNW) 19:30:25
PHONESAT 2.4 22 Nov 19:30:06 19:33:50 83° 183° (S) 19:37:33 2401.200-2431.200
Cubesat XI-IV 22 Nov 19:36:09 19:39:22 16° 269° (W) 19:42:36 437.490
AIST 1 22 Nov 19:37:13 19:39:52 16° 86° (E) 19:42:33
CANX-2 22 Nov 19:43:16 19:45:54 16° 65° (ENE) 19:48:33 2200.000
AAUSAT CUBESAT 2 22 Nov 19:47:16 19:47:59 10° 62° (ENE) 19:48:43 437.432
GOMX 1 22 Nov 19:55:11 19:58:13 17° 66° (ENE) 20:01:09 467.674
STRAND 1 22 Nov 19:56:14 20:01:20 70° 286° (WNW) 20:06:24 437.568
VERMONT LUNAR 22 Nov 19:56:47 20:00:24 70° 190° (S) 20:04:01 437.305
COMPASS 1 22 Nov 19:57:55 20:00:27 16° 65° (ENE) 20:02:59 437.405
HO-68 22 Nov 20:03:13 20:10:01 49° 66° (ENE) 20:16:52 435.675
BRITE-PL 22 Nov 20:03:13 20:07:33 28° 69° (ENE) 20:11:37 437.365/2234.400
SHINDAISAT 22 Nov 20:16:07 20:17:54 71° 58° (ENE) 20:19:38 437.305
CUTE 1.7 & AOD 2 22 Nov 20:17:04 20:20:52 34° 71° (ENE) 20:24:42 437.475
GONETS M04 22 Nov 20:21:24 20:30:18 80° 82° (E) 20:39:05
PRISM 22 Nov 20:26:18 20:27:19 11° 299° (WNW) 20:28:21 437.425
UKube-1 22 Nov 20:28:27 20:31:07 16° 64° (ENE) 20:33:47 .
CINEMA 3 22 Nov 20:34:19 20:37:18 18° 66° (ENE) 20:40:12 145.822/145.860
CUBEBUG 2 22 Nov 20:35:22 20:36:36 11° 63° (ENE) 20:37:50 437.445
Oscar 11 22 Nov 20:41:49 20:45:09 23° 67° (ENE) 20:48:31 145.826/435.025
UWE-3 22 Nov 20:43:11 20:44:41 12° 63° (ENE) 20:46:10 435.000/436.395/437.385
BEESAT 3 22 Nov 20:51:38 20:54:57 24° 113° (ESE) 20:58:20 437.485
PCSat 22 Nov 20:53:31 20:58:53 69° 116° (ESE) 21:04:17 145.827
SEEDS 22 Nov 20:54:28 20:58:39 80° 76° (ENE) 21:02:52 437.485
RS-15 22 Nov 20:56:14 21:04:23 23° 343° (NNW) 21:12:41 29.354- 29.394
CUBESAT XI-V 22 Nov 20:57:50 21:00:35 16° 297° (WNW) 21:03:19 437.345
DX 1 22 Nov 20:58:44 21:02:40 33° 69° (ENE) 21:06:37 434.975-435.025
BEESAT 2 22 Nov 21:03:41 21:07:16 30° 114° (ESE) 21:10:55 435.950
DOVE 4 22 Nov 21:06:17 21:10:58 65° 75° (ENE) 21:15:23 437.250
PHONESAT 2.4 22 Nov 21:08:57 21:12:32 46° 199° (SSW) 21:16:05 2401.200-2431.200
AIST 1 22 Nov 21:12:58 21:17:08 42° 282° (WNW) 21:21:22
VELOX 1 22 Nov 21:13:35 21:16:17 16° 63° (ENE) 21:18:59 145.980
CANX-2 22 Nov 21:17:29 21:21:30 43° 261° (W) 21:25:33 2200.000
AAUSAT CUBESAT 2 22 Nov 21:18:56 21:23:04 72° 259° (WSW) 21:27:15 437.432
AIST 2 22 Nov 21:21:54 21:25:16 24° 112° (ESE) 21:28:41 435.215
ZACube-1 22 Nov 21:24:16 21:27:51 27° 69° (ENE) 21:31:25 437.345
GOMX 1 22 Nov 21:31:11 21:36:01 53° 260° (W) 21:40:32 467.674
COMPASS 1 22 Nov 21:31:51 21:35:49 44° 261° (W) 21:39:50 437.405
VERMONT LUNAR 22 Nov 21:35:32 21:38:37 26° 206° (SSW) 21:41:42 437.305
HUMSAT D 22 Nov 21:35:41 21:38:54 22° 68° (ENE) 21:42:07 437.325/437.525
AISAT 22 Nov 21:36:14 21:40:00 27° 68° (ENE) 21:43:47 437.250
BRITE-PL 22 Nov 21:41:20 21:45:58 33° 263° (W) 21:50:18 437.365/2234.400
DELFI C3 22 Nov 21:42:49 21:46:53 90° 106° (ESE) 21:50:59 145.870
50 SAT 22 Nov 21:48:58 21:52:18 25° 69° (ENE) 21:55:39 437.505
HO-68 22 Nov 21:51:34 21:57:53 33° 264° (W) 22:04:14 435.675
CUTE 1.7 & AOD 2 22 Nov 21:53:50 21:56:53 20° 267° (W) 21:59:59 437.475
FUNcube-1 22 Nov 21:59:39 22:03:52 68° 75° (ENE) 22:08:01 145.935
UKube-1 22 Nov 22:02:40 22:06:53 49° 260° (W) 22:11:08 .
CUBEBUG 1 22 Nov 22:03:44 22:06:51 19° 65° (ENE) 22:09:59 437.445
CUBEBUG 2 22 Nov 22:08:29 22:12:47 69° 259° (WSW) 22:17:00 437.445
CINEMA 3 22 Nov 22:09:59 22:14:14 42° 261° (W) 22:18:21 145.822/145.860
UWE-3 22 Nov 22:16:28 22:20:44 64° 259° (W) 22:24:55 435.000/436.395/437.385
Oscar 11 22 Nov 22:17:19 22:21:09 32° 263° (W) 22:25:02 145.826/435.025
GONETS M04 22 Nov 22:19:59 22:26:00 21° 281° (WNW) 22:32:00
ANTELSAT 22 Nov 22:25:31 22:28:33 18° 93° (E) 22:31:37 437.575/2403.000
BEESAT 3 22 Nov 22:29:20 22:33:03 32° 310° (NW) 22:36:50 437.485
QB50P1 22 Nov 22:29:53 22:31:43 13° 91° (E) 22:33:32 145.935-145.965
ESTCUBE 1 22 Nov 22:33:42 22:37:56 40° 71° (ENE) 22:42:12 437.505/2401.250
DX 1 22 Nov 22:35:33 22:38:58 22° 265° (W) 22:42:23 434.975-435.025
PCSat 22 Nov 22:38:49 22:42:49 21° 315° (NW) 22:46:50 145.827
BEESAT 2 22 Nov 22:41:58 22:45:32 28° 312° (NW) 22:49:10 435.950
DOVE 4 22 Nov 22:47:14 22:49:04 12° 269° (W) 22:50:52 437.250
VELOX 1 22 Nov 22:48:04 22:52:27 52° 260° (W) 22:56:50 145.980
PHONESAT 2.4 22 Nov 22:48:55 22:50:48 13° 214° (SSW) 22:52:40 2401.200-2431.200
POPSAT HIP 1 22 Nov 22:52:53 22:56:15 23° 95° (E) 22:59:36 437.405
BUGSAT 1 22 Nov 22:58:40 23:01:50 21° 94° (E) 23:04:57 437.445
AIST 2 22 Nov 22:59:49 23:03:43 35° 310° (NW) 23:07:42 435.215
ZACube-1 22 Nov 23:00:44 23:04:12 24° 265° (W) 23:07:39 437.345
HUMSAT D 22 Nov 23:10:56 23:14:35 29° 263° (W) 23:18:13 437.325/437.525
AISAT 22 Nov 23:12:41 23:16:34 28° 264° (W) 23:20:27 437.250
RS-15 22 Nov 23:13:45 23:22:11 24° 19° (NNE) 23:30:49 29.354- 29.394
TIGRISAT 22 Nov 23:21:14 23:25:37 71° 102° (ESE) 23:30:05 435.000
POLYITAN 1 22 Nov 23:23:36 23:27:44 52° 100° (E) 23:31:51 437.675
50 SAT 22 Nov 23:24:15 23:27:34 24° 265° (W) 23:30:54 437.505
QB50P2 22 Nov 23:27:06 23:31:17 57° 101° (E) 23:35:26 145.880/145.840
UNISAT 6 22 Nov 23:32:49 23:37:14 85° 284° (WNW) 23:41:45 437.425
DUCHIFAT 1 22 Nov 23:35:32 23:39:45 71° 102° (ESE) 23:43:56 145.980
CUBEBUG 1 22 Nov 23:38:43 23:42:56 42° 261° (W) 23:47:10 437.445
SPROUT 22 Nov 23:41:16 23:45:23 45° 72° (ENE) 23:49:31 437.525
TISAT 1 22 Nov 23:42:40 23:46:50 55° 73° (ENE) 23:51:01 437.305
NANOSAT C BR1 22 Nov 23:54:21 23:58:34 69° 285° (WNW) 00:02:44 145.865
ANTELSAT 23 Nov 00:01:22 00:05:31 41° 288° (WNW) 00:09:45 437.575/2403.000
AUBIESAT-1 23 Nov 00:03:20 00:06:47 28° 62° (ENE) 00:10:30 437.475
QB50P1 23 Nov 00:03:49 00:07:57 54° 287° (WNW) 00:12:02 145.935-145.965
M-CUBED/EXP-1 PRIME 23 Nov 00:05:51 00:09:25 33° 64° (ENE) 00:13:17 437.505
ESTCUBE 1 23 Nov 00:11:41 00:14:58 20° 267° (W) 00:18:16 437.505/2401.250
ISS 23 Nov 00:24:23 00:26:57 21° 133° (SE) 00:29:32 145.825
ITUPSAT 1 23 Nov 00:27:04 00:31:02 26° 67° (ENE) 00:35:01 437.325
POPSAT HIP 1 23 Nov 00:28:30 00:32:10 29° 291° (WNW) 00:35:48 437.405
BUGSAT 1 23 Nov 00:33:47 00:37:21 29° 291° (WNW) 00:40:53 437.445
SWISSCUBE 23 Nov 00:38:55 00:43:19 37° 69° (ENE) 00:47:44 437.505
CUSAT 1 23 Nov 00:53:01 00:57:19 88° 81° (E) 01:03:09 437.405
TIGRISAT 23 Nov 01:00:17 01:01:49 12° 298° (WNW) 01:03:22 435.000
KKS-1 23 Nov 01:00:28 01:02:01 12° 61° (ENE) 01:03:33 437.445
POLYITAN 1 23 Nov 01:01:01 01:03:15 14° 296° (WNW) 01:05:29 437.675
DANDE 23 Nov 01:03:18 01:07:25 87° 260° (W) 01:13:04 436.750
QB50P2 23 Nov 01:04:45 01:06:43 13° 297° (WNW) 01:08:41 145.880/145.840
BEESAT 23 Nov 01:10:22 01:15:07 71° 74° (ENE) 01:19:55 436.000
DUCHIFAT 1 23 Nov 01:14:02 01:15:02 11° 298° (WNW) 01:16:02 145.980
SPROUT 23 Nov 01:19:03 01:21:42 16° 268° (W) 01:24:21 437.525
TISAT 1 23 Nov 01:21:05 01:23:00 13° 269° (W) 01:24:56 437.305
RS-15 23 Nov 01:26:39 01:37:40 58° 49° (NE) 01:49:07 29.354- 29.394
Oscar 19 23 Nov 01:33:37 01:38:09 30° 96° (E) 01:42:39 437.125/150
AUBIESAT-1 23 Nov 01:38:34 01:41:47 24° 262° (W) 01:45:16 437.475
YUBILEINY 23 Nov 01:40:41 01:45:29 16° 76° (ENE) 01:50:16 435.215
M-CUBED/EXP-1 PRIME 23 Nov 01:41:37 01:44:36 21° 263° (W) 01:47:47 437.505
ISS 23 Nov 02:00:15 02:03:25 44° 330° (NNW) 02:06:36 145.825
STARS 23 Nov 02:00:52 02:04:49 33° 70° (ENE) 02:08:46 437.465
ITUPSAT 1 23 Nov 02:04:25 02:08:46 34° 263° (W) 02:13:09 437.325
MaSat-1 23 Nov 02:04:59 02:07:17 59° 246° (WSW) 02:09:37 437.345
SWISSCUBE 23 Nov 02:17:27 02:21:16 23° 266° (W) 02:25:06 437.505
ITAMSAT 1 23 Nov 02:18:54 02:23:28 31° 96° (E) 02:27:59 435.822/435.867
Gurwin Techsat 1B 23 Nov 02:31:00 02:35:13 24° 94° (E) 02:39:25 435.225
KKS-1 23 Nov 02:33:36 02:38:03 74° 258° (WSW) 02:42:31 437.445
BEESAT 23 Nov 02:51:41 02:53:28 12° 270° (W) 02:55:15 436.000
Oscar 19 23 Nov 03:12:53 03:17:27 33° 292° (WNW) 03:22:01 437.125/150
YUBILEINY 23 Nov 03:32:02 03:40:52 84° 96° (E) 03:49:41 435.215
AO-7 23 Nov 03:36:34 03:42:26 21° 92° (E) 03:48:16 29.400- 29.500
STARS 23 Nov 03:37:53 03:41:21 22° 265° (W) 03:44:48 437.465
ISS 23 Nov 03:38:40 03:40:43 15° 349° (N) 03:42:46 145.825
RS-15 23 Nov 03:39:25 03:49:45 44° 251° (WSW) 04:00:31 29.354- 29.394
HORYU 2 23 Nov 03:40:20 03:44:40 47° 100° (E) 03:49:00 437.375
ITAMSAT 1 23 Nov 03:58:20 04:02:54 32° 293° (WNW) 04:07:27 435.822/435.867
PCSat 23 Nov 04:00:48 04:02:12 11° 35° (NE) 04:03:37 145.827
Gurwin Techsat 1B 23 Nov 04:10:20 04:15:21 43° 290° (WNW) 04:20:20 435.225
SO-50 23 Nov 04:38:07 04:42:21 42° 116° (ESE) 04:46:43 436.795
MOZHAYETS 4 23 Nov 04:50:21 04:54:56 82° 76° (ENE) 04:59:34
BEESAT 3 23 Nov 05:11:32 05:14:34 19° 44° (NE) 05:17:35 437.485
ISS 23 Nov 05:16:23 05:18:23 15° 10° (N) 05:20:23 145.825
HORYU 2 23 Nov 05:18:03 05:20:59 17° 296° (WNW) 05:23:55 437.375
BEESAT 2 23 Nov 05:24:01 05:27:21 22° 46° (NE) 05:30:39 435.950
AO-7 23 Nov 05:27:40 05:36:04 83° 290° (WNW) 05:44:26 29.400- 29.500
YUBILEINY 23 Nov 05:32:31 05:38:47 21° 297° (WNW) 05:45:04 435.215
STRAND 1 23 Nov 05:34:34 05:38:23 21° 64° (ENE) 05:42:12 437.568
PRISM 23 Nov 05:38:55 05:43:00 53° 73° (ENE) 05:47:08 437.425
JAS-2 23 Nov 05:38:57 05:46:03 54° 98° (E) 05:52:17 435.910
PCSat 23 Nov 05:41:34 05:46:54 54° 57° (ENE) 05:52:11 145.827
AIST 2 23 Nov 05:43:47 05:46:55 19° 44° (NE) 05:50:02 435.215
O/OREOS (USA 219) 23 Nov 06:04:38 06:07:32 17° 100° (E) 06:10:25 437.305
Cubesat XI-IV 23 Nov 06:11:35 06:15:59 26° 95° (E) 06:20:20 437.490
SO-50 23 Nov 06:19:18 06:23:04 25° 315° (NW) 06:26:56 436.795
CUBESAT XI-V 23 Nov 06:22:17 06:26:53 55° 73° (ENE) 06:31:31 437.345
BEESAT 3 23 Nov 06:49:01 06:53:05 50° 242° (WSW) 06:57:06 437.485
ISS 23 Nov 06:52:34 06:55:43 40° 29° (NNE) 06:58:51 145.825
CUTE-I 23 Nov 06:53:20 06:58:37 61° 101° (ESE) 07:03:51 437.470
BEESAT 2 23 Nov 07:01:51 07:05:49 41° 244° (WSW) 07:09:43 435.950
STRAND 1 23 Nov 07:12:14 07:17:12 49° 260° (W) 07:22:12 437.568
PRISM 23 Nov 07:17:02 07:18:53 13° 269° (W) 07:20:45 437.425
AIST 1 23 Nov 07:20:19 07:24:32 44° 78° (ENE) 07:28:41
AIST 2 23 Nov 07:21:40 07:25:52 52° 242° (WSW) 07:29:59 435.215
AO-7 23 Nov 07:22:07 07:27:38 20° 310° (NW) 07:33:10 29.400- 29.500
JAS-2 23 Nov 07:24:32 07:30:36 30° 299° (WNW) 07:36:08 435.910
PCSat 23 Nov 07:25:53 07:29:53 21° 254° (WSW) 07:33:52 145.827
GONETS M04 23 Nov 07:29:32 07:34:56 18° 77° (ENE) 07:40:19
O/OREOS (USA 219) 23 Nov 07:42:14 07:46:33 44° 297° (WNW) 07:50:51 437.305
Cubesat XI-IV 23 Nov 07:51:13 07:56:10 40° 291° (WNW) 08:01:06 437.490
CUBESAT XI-V 23 Nov 08:01:57 08:04:40 15° 269° (W) 08:07:23 437.345
ISS 23 Nov 08:29:29 08:32:14 24° 226° (SW) 08:34:58 145.825
CUTE-I 23 Nov 08:34:39 08:38:10 18° 298° (WNW) 08:41:41 437.470
SEEDS 23 Nov 08:41:01 08:43:14 14° 91° (E) 08:45:25 437.485
AIST 1 23 Nov 08:59:16 09:01:46 15° 275° (W) 09:04:16
CANX-2 23 Nov 09:03:15 09:07:04 31° 96° (E) 09:10:53 2200.000
AAUSAT CUBESAT 2 23 Nov 09:03:41 09:06:39 18° 93° (E) 09:09:37 437.432
DOVE 4 23 Nov 09:06:56 09:09:21 15° 92° (E) 09:11:47 437.250
COMPASS 1 23 Nov 09:16:10 09:19:52 29° 96° (E) 09:23:34 437.405
HO-68 23 Nov 09:18:12 09:25:09 50° 100° (E) 09:32:02 435.675
GONETS M04 23 Nov 09:21:38 09:30:26 89° 277° (W) 09:39:21
QB50P1 23 Nov 09:24:29 09:25:31 11° 62° (ENE) 09:26:33 145.935-145.965
DELFI C3 23 Nov 09:25:36 09:27:37 13° 91° (E) 09:29:37 145.870
ANTELSAT 23 Nov 09:25:47 09:28:25 16° 65° (ENE) 09:31:04 437.575/2403.000
GOMX 1 23 Nov 09:33:17 09:37:12 40° 98° (E) 09:41:09 467.674
CUTE 1.7 & AOD 2 23 Nov 09:38:01 09:42:18 71° 102° (ESE) 09:46:34 437.475
